sat.trackr.live / text

‹ back to catalog

STARLINK-34409

NORAD 64485 · 2025-133P

PAYLOAD ACTIVE UNKNOWN

§ Identity

Operator
Country
US
Launch date
2025-06-23
Launch site
AFETR
Launch vehicle
Mass (kg)
RCS (m²)

Purposes: comms

External: N2YO · Heavens-Above · Gunter

§ Orbital elements

Epoch: 2026-09-20T09:19:21.158976Z

Period
93.85 min
Inclination
53.1597°
Eccentricity
0.0001264
Mean motion
15.34399979 rev/d
Perigee alt
461.8 km
Apogee alt
463.6 km
Semi-major
6,840.8 km
B*
4.7099e-4
RAAN
289.8887°
Arg perigee
101.7364°
Mean anomaly
258.3781°
Rev number
7,103

§ Raw data

STARLINK-344091 64485U 25133P   26263.38843934  .00015570  00000+0  47099-3 0  99912 64485  53.1597 289.8887 0001264 101.7364 258.3781 15.34399979 71038

JSON: /api/v1/satellites/64485 · /tle

For live sub-satellite position, see the globe view (requires WebGL).

§ Visibility from observer

Set your observer location to see the next 7 days of passes ≥ 10°. The values pass through the URL so the page stays shareable.

No JS? Fill the form by hand. The geolocation button needs JavaScript.